Weather History for Rochester, NY

Change the Weather History Date:

Saturday, January 11, 2014

  Actual Average Record
Temperature  
Mean Temperature 45 °F 25 °F  
Max Temperature 53 °F 32 °F 63 °F (1975)
Min Temperature 37 °F 18 °F -14 °F (1981)
Degree Days  
Heating Degree Days 20 40  
Month to date heating degree days 495 436  
Since 1 July heating degree days 2992 2889  
Cooling Degree Days 0 0  
Month to date cooling degree days 0 0  
Year to date cooling degree days 0 0  
Moisture  
Dew Point 40 °F    
Average Humidity 85    
Maximum Humidity 93    
Minimum Humidity 76    
Precipitation  
Precipitation 0.29 in 0.08 in 2.11 in (1878)
Month to date precipitation 0.86 0.90  
Year to date precipitation 0.86 0.90  
Snow  
Snow 0.00 in 0.90 in 10.20 in (1982)
Month to date snowfall 12.7 9.8  
Since 1 July snowfall 48.7 39.0  
Snow Depth T in    
Sea Level Pressure  
Sea Level Pressure 29.46 in    
Wind  
Wind Speed 14 mph (SW)    
Max Wind Speed 36 mph    
Max Gust Speed 48 mph    
Visibility 9 miles    
Events Rain    
T = Trace of Precipitation, MM = Missing Value Source: NWS Daily Summary

Daily Weather History Graph

Daily Weather History Graph

Search for Another Location

Airport:

Trip Planner

Search our weather history database for the weather conditions in past years. The results will help you decide how hot, cold, wet, or windy it might be!

Date:

Astronomy

Jan. 11, 2014 Rise Set
Actual Time 7:41 AM EST 4:56 PM EST
Civil Twilight 7:09 AM EST 5:28 PM EST
Nautical Twilight 6:34 AM EST 6:03 PM EST
Astronomical Twilight 5:59 AM EST 6:37 PM EST
Moon 1:40 PM EST (1/11) 3:42 AM EST (1/11)
Length of Visible Light 10h 18m
Length of Day
9h 15m
Waxing Gibbous, 83% of the Moon is Illuminated
Jan 11
Waxing Gibbous
Jan 15
Full
Jan 24
Last Quarter
Jan 30
New
Feb 6
First Quarter

Hourly Weather History & Observations

Time (EST) Temp. Windchill Dew Point Humidity Pressure Visibility Wind Dir Wind Speed Gust Speed Precip Events Conditions
12:54 AM 39.0 °F 31.8 °F 35.1 °F 86% 29.88 in 10.0 mi SE 11.5 mph - N/A   Overcast
1:54 AM 43.0 °F 37.7 °F 37.9 °F 82% 29.82 in 10.0 mi SSE 9.2 mph - 0.00 in Rain Light Rain
2:54 AM 46.9 °F - 39.9 °F 77% 29.79 in 10.0 mi South 18.4 mph 27.6 mph 0.01 in   Overcast
3:54 AM 46.0 °F 39.0 °F 39.9 °F 79% 29.74 in 10.0 mi South 17.3 mph 21.9 mph N/A   Overcast
4:54 AM 46.9 °F - 39.9 °F 77% 29.70 in 10.0 mi South 10.4 mph 23.0 mph N/A   Overcast
5:54 AM 46.9 °F - 41.0 °F 80% 29.66 in 10.0 mi South 9.2 mph - N/A   Overcast
6:54 AM 46.9 °F - 41.0 °F 80% 29.62 in 10.0 mi South 9.2 mph - N/A   Overcast
7:54 AM 46.9 °F - 41.0 °F 80% 29.60 in 10.0 mi South 6.9 mph - N/A   Overcast
8:54 AM 48.0 °F - 44.1 °F 86% 29.57 in 9.0 mi South 9.2 mph - 0.00 in Rain Light Rain
9:54 AM 48.0 °F - 45.0 °F 89% 29.54 in 6.0 mi South 9.2 mph - 0.04 in Rain Light Rain
10:54 AM 50.0 °F - 46.9 °F 89% 29.49 in 4.0 mi South 8.1 mph - 0.10 in Rain Rain
11:54 AM 51.1 °F - 48.0 °F 89% 29.41 in 10.0 mi SSW 10.4 mph - 0.08 in Rain Light Rain
12:54 PM 51.1 °F - 46.9 °F 86% 29.34 in 10.0 mi SSW 9.2 mph - 0.01 in   Overcast
1:54 PM 52.0 °F - 46.9 °F 83% 29.28 in 10.0 mi SSW 8.1 mph - 0.00 in   Overcast
2:54 PM 48.9 °F - 46.0 °F 90% 29.24 in 10.0 mi SSW 8.1 mph - N/A   Overcast
3:54 PM 51.1 °F - 46.0 °F 83% 29.23 in 10.0 mi SW 9.2 mph - N/A   Overcast
4:54 PM 53.1 °F - 46.9 °F 80% 29.24 in 10.0 mi SW 16.1 mph 25.3 mph N/A   Overcast
5:06 PM 51.8 °F - 46.4 °F 82% 29.26 in 2.0 mi West 24.2 mph 35.7 mph 0.00 in Rain Heavy Rain
5:19 PM 48.2 °F - 44.6 °F 87% 29.28 in 2.0 mi West 32.2 mph 48.3 mph 0.05 in Rain Light Rain
5:23 PM 48.2 °F - 42.8 °F 82% 29.27 in 4.0 mi West 27.6 mph 48.3 mph 0.05 in Rain Light Rain
5:54 PM 46.0 °F 39.0 °F 41.0 °F 83% 29.29 in 10.0 mi WSW 17.3 mph 28.8 mph 0.05 in Rain Light Rain
6:12 PM 46.4 °F 37.7 °F 39.2 °F 76% 29.28 in 10.0 mi WSW 26.5 mph 34.5 mph 0.00 in   Overcast
6:54 PM 44.1 °F 34.6 °F 37.9 °F 79% 29.30 in 10.0 mi West 26.5 mph 39.1 mph 0.00 in   Mostly Cloudy
7:54 PM 42.1 °F 31.5 °F 36.0 °F 79% 29.33 in 10.0 mi WSW 28.8 mph 44.9 mph N/A   Mostly Cloudy
8:54 PM 39.9 °F 30.2 °F 35.1 °F 83% 29.38 in 10.0 mi West 20.7 mph 31.1 mph N/A   Overcast
9:19 PM 39.2 °F 29.0 °F 35.6 °F 87% 29.37 in 8.0 mi West 21.9 mph 34.5 mph 0.00 in Rain Light Rain
9:29 PM 39.2 °F 27.8 °F 35.6 °F 87% 29.36 in 10.0 mi WSW 27.6 mph 33.4 mph 0.00 in   Overcast
9:54 PM 39.9 °F 30.2 °F 33.1 °F 77% 29.40 in 10.0 mi WSW 20.7 mph 34.5 mph 0.00 in   Overcast
10:09 PM 39.2 °F 29.6 °F 33.8 °F 81% 29.39 in 10.0 mi WSW 19.6 mph 35.7 mph 0.00 in Rain Light Rain
10:19 PM 37.4 °F 26.9 °F 33.8 °F 87% 29.40 in 10.0 mi WSW 20.7 mph 29.9 mph 0.00 in   Overcast
10:54 PM 37.9 °F 29.2 °F 32.0 °F 79% 29.45 in 10.0 mi West 15.0 mph 29.9 mph 0.00 in   Overcast
11:54 PM 37.0 °F 26.2 °F 30.9 °F 79% 29.47 in 10.0 mi West 21.9 mph 33.4 mph N/A   Mostly Cloudy